Location: Pine Mountain Observatory
(43.7910°N, 120.9377°W)
Time: 03:42:50
(UTC-07:00)

Envisat - Visible Passes

Search period start: 21 May 2018 00:00
Search period end: 31 May 2018 00:00
Orbit: 764 x 766 km, 98.2° (Epoch: 20 May)

Date Brightness Start Highest point End Pass type
(mag) Time Alt. Az. Time Alt. Az. Time Alt. Az.
21 May 5.8 21:57:35 10° WSW 21:59:25 12° W 22:01:14 10° WNW visible
22 May 5.1 21:18:04 10° SSW 21:22:16 26° W 21:26:30 10° NW visible
24 May 5.6 21:45:14 10° SW 21:48:07 15° W 21:51:01 10° NW visible
25 May 4.7 21:06:31 10° SSW 21:11:02 32° W 21:15:35 10° NNW visible
27 May 5.5 21:33:17 10° SW 21:36:50 19° W 21:40:25 10° NW visible
29 May 5.9 22:01:43 10° W 22:02:44 11° W 22:03:46 10° WNW visible
30 May 5.2 21:21:32 10° SSW 21:25:34 24° W 21:29:39 10° NW visible
